sat.trackr.live / text

‹ back to catalog

STARLINK-4302

NORAD 53481 · 2022-099S

PAYLOAD ACTIVE UNKNOWN

§ Identity

Operator
Country
US
Launch date
2022-08-12
Launch site
AFWTR
Launch vehicle
Mass (kg)
RCS (m²)

Purposes: comms

External: N2YO · Heavens-Above · Gunter

§ Orbital elements

Epoch: 2026-05-25T04:00:03.998880Z

Period
93.54 min
Inclination
97.6049°
Eccentricity
0.0001608
Mean motion
15.39367270 rev/d
Perigee alt
446.9 km
Apogee alt
449.1 km
Semi-major
6,826.1 km
B*
3.3286e-3
RAAN
267.1451°
Arg perigee
82.9636°
Mean anomaly
112.5405°
Rev number
577

§ Raw data

STARLINK-43021 53481U 22099S   26145.16671295  .00132099  00000+0  33286-2 0  99952 53481  97.6049 267.1451 0001608  82.9636 112.5405 15.39367270  5773

JSON: /api/v1/satellites/53481 · /tle

For live sub-satellite position, see the globe view (requires WebGL).

§ Visibility from observer

Set your observer location to see the next 7 days of passes ≥ 10°. The values pass through the URL so the page stays shareable.

No JS? Fill the form by hand. The geolocation button needs JavaScript.